This is the latest recevied weather packets stored in our database for station/object KM4KMO-14. If no packets are shown the sender has not sent any weather packets the latest 10 day(s).
| Time | Temp. | Humidity | Pressure | Rain* | Wind** | Luminosity | Snow |
|---|---|---|---|---|---|---|---|
| 1777619552 | 12.78° C | 66% | 1011.2 hPa | 0 mm | - | - | - |
| 1777618652 | 12.78° C | 64% | 1011.3 hPa | 0 mm | - | - | - |
| 1777617752 | 12.78° C | 66% | 1011.4 hPa | 0 mm | - | - | - |
| 1777616852 | 12.78° C | 67% | 1011.3 hPa | 0 mm | - | - | - |
| 1777615952 | 12.78° C | 66% | 1011.6 hPa | 0 mm | - | - | - |
| 1777615052 | 12.78° C | 68% | 1011.7 hPa | 0 mm | - | - | - |
| 1777614152 | 12.78° C | 67% | 1011.6 hPa | 0 mm | - | - | - |
| 1777613252 | 13.33° C | 68% | 1011.6 hPa | 0 mm | - | - | - |
| 1777612352 | 13.33° C | 68% | 1011.4 hPa | 0 mm | - | - | - |
| 1777611452 | 12.78° C | 69% | 1011.2 hPa | 0 mm | - | - | - |
| 1777610552 | 12.78° C | 68% | 1011.3 hPa | 0 mm | - | - | - |
| 1777609652 | 13.33° C | 67% | 1011.4 hPa | 0 mm | - | - | - |
| 1777608752 | 13.33° C | 67% | 1011.5 hPa | 0 mm | - | - | - |
| 1777607852 | 13.33° C | 68% | 1011.6 hPa | 0 mm | - | - | - |
| 1777606952 | 13.33° C | 68% | 1011.5 hPa | 0 mm | - | - | - |
| 1777606052 | 13.33° C | 72% | 1011.4 hPa | 0 mm | - | - | - |
| 1777605152 | 13.33° C | 73% | 1011.8 hPa | 0 mm | - | - | - |
| 1777604252 | 13.33° C | 69% | 1011.9 hPa | 0 mm | - | - | - |
| 1777603352 | 13.33° C | 67% | 1011.7 hPa | 0 mm | - | - | - |
| 1777602452 | 13.89° C | 66% | 1011.4 hPa | 0 mm | - | - | - |
| 1777601552 | 13.89° C | 65% | 1011.2 hPa | 0 mm | - | - | - |
| 1777600652 | 14.44° C | 67% | 1010.8 hPa | 0 mm | - | - | - |
| 1777599753 | 15° C | 62% | 1010.8 hPa | 0 mm | - | - | - |
| 1777598853 | 15.56° C | 64% | 1010.8 hPa | 0 mm | - | - | - |
| 1777597953 | 16.11° C | 61% | 1010.8 hPa | 0 mm | - | - | - |
* Rain latest hour (hover to see other rain measurements)
** Current wind speed in m/s (hover to see current wind gust speed)